Location: Newark
(13.8625°N, 100.5144°E)
Time: 18:03:28
(UTC+00:00)

LightSail 2 - Visible Passes

Search period start: 09 May 2021 00:00
Search period end: 19 May 2021 00:00
Orbit: 682 x 704 km, 24.0° (Epoch: 09 May)

Date Brightness Start Highest point End Pass type
(mag) Time Alt. Az. Time Alt. Az. Time Alt. Az.
09 May 7.2 20:16:04 22° NNE 20:16:04 22° NNE 20:18:27 10° NE visible
09 May 6.9 21:55:47 10° NW 21:59:54 25° N 22:04:01 10° ENE visible
10 May 6.8 20:54:18 22° NNW 20:55:29 24° N 20:59:32 10° NE visible
11 May 7.8 19:54:02 15° NE 19:54:02 15° NE 19:55:11 10° NE visible
11 May 6.7 21:32:35 10° NW 21:36:46 28° N 21:41:02 10° ENE visible
12 May 6.8 20:32:23 25° N 20:32:23 25° N 20:36:29 10° ENE visible
12 May 6.2 22:13:11 10° WNW 22:17:55 42° NNE 22:22:38 10° E visible
13 May 6.5 21:10:51 19° NW 21:13:36 33° NNE 21:18:05 10° ENE visible
14 May 7.0 13:04:11 10° SSW 13:05:50 16° S 13:05:50 16° S visible
14 May 7.2 20:10:51 23° NE 20:10:51 23° NE 20:13:31 10° ENE visible
14 May 5.6 21:49:45 10° WNW 21:54:40 57° NNE 21:59:33 10° E visible
15 May 7.0 12:01:32 10° S 12:03:38 12° SSE 12:05:43 10° SE visible
15 May 7.1 13:43:43 10° SW 13:45:04 18° SW 13:45:04 18° SW visible
15 May 6.0 20:49:32 38° NNW 20:50:23 42° NNE 20:55:06 10° E visible
16 May 6.0 12:40:00 10° SW 12:44:26 30° SSE 12:45:42 26° SE visible
16 May 7.9 14:24:19 10° WSW 14:24:20 10° WSW 14:24:20 10° WSW visible
16 May 7.9 19:49:47 14° ENE 19:49:47 14° ENE 19:50:34 10° ENE visible
16 May 5.1 21:28:23 24° WNW 21:31:22 81° NNE 21:36:21 10° ESE visible
17 May 5.0 13:20:07 10° WSW 13:24:58 68° S 13:24:58 68° S visible
17 May 6.3 20:28:46 38° ENE 20:28:46 38° ENE 20:32:02 10° E visible
17 May 5.4 22:07:24 10° W 22:12:10 45° SSW 22:16:55 10° SE visible
18 May 5.5 12:16:09 10° SW 12:21:01 45° SSE 12:25:33 12° E visible
18 May 6.5 14:01:04 10° W 14:04:10 35° W 14:04:10 35° W visible
18 May 4.9 21:07:53 69° SW 21:08:01 70° SSW 21:12:58 10° ESE visible
